Погода Бирилюссы

Погода Бирилюссы : погода сейчас, прогноз погоды и архив. Всё, что Вы хотите узнать о погоде Бирилюссы!

Поиск расширенной информации на нашем сайте:

Другие новости

Новости СМИ2

Главная страница сайта

Новости сайта

03.07.2017

Напоминаем, что на нашем специализированном сайте Метеоцентр.Азия вы можете получить высокодетализированные автоматические прогнозы погоды по пунктам России, СНГ и мира в авиационном формате (включающие направление и скорость ветра, видимость, явления погоды, количество и форму облачности, нижнюю и верхнюю границу облачности).


Погода Бирилюссы - сегодня

Время (UTC), дата Ветер
(°,м/с) 
Видим.   Явления Облачность Т
(°С)
Тd
(°С)
f(%) Тe
(°С)
Pmin
(гПа)
dP
(гПа)
Po
(мм)
O2
(г/м3)
Тmin Tmax R s Состояние
почвы
15 18.06.18 080 (В) н/о    н/о 
+20.4 +11 55 +23  1003.9  -0.9  737  274           
18 18.06.18 090 (В) н/о    н/о 
+18.8 +10.5 58 +22  1002.3  -1.7  736  276           
21 18.06.18 090 (В) н/о    н/о 
+15.7 +10.2 70 +18  1001  -1.5  735  278           
00 19.06.18 100 (В) 2-4  н/о    н/о 
+18.6 +11.6 64 +24  999.9  -0.8  734  275  +13.8         
03 19.06.18 130 (ЮВ) н/о    н/о 
+23.6 +13.8 54 +31  999.2  -0.4  734  269           
06 19.06.18 240 (ЮЗ) н/о    н/о 
+27.2 +16.6 52 +39  998.6  -0.2  734  265           
09 19.06.18 310 (СЗ) н/о    н/о 
+30.5 +14.4 38 +39  998  -0.4  734  263           
12 19.06.18 тихо () -0  н/о    н/о 
+27.1 +17 54 +40  997.5  -0.7  733  265    +30.9       
15 19.06.18 120 (ЮВ) н/о    н/о 
+21.6 +18 80 +37  997.5  -0.4  733  269           
18 19.06.18 220 (ЮЗ) 4-10{10}  н/о    н/о 
+22.2 +14.1 60 +30  999.4  1.9  734  271           
21 19.06.18 210 (ЮЗ) 2{13}  н/о    н/о 
+15 +14.5 97 +24  999.8  -0.1  734  277           
00 20.06.18 200 (Ю) 2-5  н/о    н/о 
+17.5 +14.3 81 +26  1002.4  2.8  736  276  +15       
03 20.06.18 230 (ЮЗ) н/о    н/о 
+19.7 +12.4 63 +26  1004  1.6  737  275           
06 20.06.18 250 (З) н/о    н/о 
+21.8 +10.8 50 +24  1004.9  738  273           
09 20.06.18 240 (ЮЗ) н/о    н/о 
+22.6 +9.7 44 +24  1004.5  -0.4  738  273           
12 20.06.18 210 (ЮЗ) 2-4  н/о    н/о 
+23.3 +10.3 44 +25  1003.9  -0.5  738  272    +24.4       
15 20.06.18 тихо ()   н/о    н/о 
+17.9 +10.3 61 +20  1004.5  0.1  738  277           
18 20.06.18 тихо ()   н/о    н/о 
+15.2 +11.1 76 +18  1004.5  -0.1  738  279           
21 20.06.18 180 (Ю) н/о    н/о 
+15.9 +11.8 77 +21  1005.1  0.6  738  279           
00 21.06.18 180 (Ю) 2-5  н/о    н/о 
+16.7 +12.5 76 +23  1005.3  0.3  738  278  +13.9         
03 21.06.18 190 (Ю) н/о    н/о 
+20.4 +13 62 +26  1005.1  738  274           
06 21.06.18 210 (ЮЗ) н/о    н/о 
+20.2 +13.9 67 +27  1003.9  -1.2  737  274           
09 21.06.18 320 (СЗ) н/о    н/о 
+15.7 +13.7 88 +24  1004.7  0.5  738  278           
12 21.06.18 220 (ЮЗ) 2-5  н/о    н/о 
+20.4 +13.5 65 +27  1004.7  0.3  738  274    +23.2     
15 21.06.18 тихо ()   н/о    н/о 
+17.3 +12.8 75 +23  1006.2  1.2  739  277           
Время (UTC), дата Ветер
(°,м/с) 
Видим.   Явления Облачность Т
(°С)
Тd
(°С)
f(%) Тe
(°С)
Pmin
(гПа)
dP
(гПа)
Po
(мм)
O2
(г/м3)
Тmin Tmax R s Состояние
почвы

Для получения пояснительной информации подведите курсор к названию столбца.

ПОГОДА Бирилюссы - архив

Всё, что Вы хотите узнать о погоде Бирилюссы - удобно и подробно!

Выберите нужную дату (начиная с 1 января 2015* года) и нажмите кнопку "Найти".
Будут отображены архивные сводки погоды по пункту Бирилюссы, начиная с указанной даты.


Отображать данные в формате CSV (для использования в таблицах Excel)


Внимание! Наш архив погоды предназначен исключительно для личного некоммерческого использования в познавательных целях. Если Вам необходимы официальные справки о состоянии погоды (для производственных, юридических, коммерческих и т.п. целей), обращайтесь в органы Росгидромета.

*Примечание: данная дата относится к архиву по метеостанциям СССР (Россия, СНГ, Балтия).
Архив по метеостанциям Зарубежной Европы и Азии (кроме Китая) хранится 10 дней, по другим регионам земного шара (Китай, Африка, Америка, Австралия, Океания) - 1 день.

Бирилюссы - район местоположения метеостанции


Название, широта, долгота, высота метеостанции:
Бирилюссы 57.1°ш. 90.7°д. 182 м над ур. моря [Российская Федерация]

Дополнительная информация

В oтличие oт бoльшинства пoгoдных сайтoв мы публикуем пoдрoбную метеoинфoрмацию в детальнoм прoфессиoнальнoм фoрмате.

Характеристики температуры и влажнoсти вoздуха измеряются на высoте 2 м в тени вдали oт зданий и деревьев.
Скoрoсть ветра измеряется на высoте 10 м (на урoвне рoста челoвека скoрoсть ветра ниже в 1.5-2 раза). Если метеoстанция нахoдится в гoрoде или в лесу, тo скoрoсть ветра занижена на 2-4 м/с пo сравнению с oткрытым местoм. Скoрoсть ветра над акватoриями крупных рек и oзёр, а также на вершинах хoлмoв на 2-5 м/с выше, чем в oбычных услoвиях.
Атмoсфернoе давление в разных тoчках местнoсти мoжет значительнo oтличаться oт давления на метеoстанции, в зависимoсти oт услoвий рельефа (при пoдъёме на 10 м давление пoнижается примернo на 1 мм рт.ст.).